No particular awareness of the weather is required.    There are no Weather-warnings


Meteo18 Weather Cam more information Meteo18 Weather Cam


Thunder radar more information blitzortung!


Rain radar more information rain snow radar


Visit our other weather sites:

Template documentation
and downloads

And another site



Weather Underground History page Text

Daily Summary for November 10, 2016 Units:  Metric    English   Both
« Previous Day
Next Day »
Daily Weekly Monthly Yearly Custom
  High: Low: Average:
Temperature: 10.4 °C 7.4 °C 8.8 °C
Dew Point: 8.7 °C 6.1 °C 7.6 °C
Humidity: 95 % 87 % 92 %
Wind Speed: 24.1 km/h 0.0 km/h 8.8 km/h
Wind Gust: 33.8 km/h - -
Wind:- - WSW
Pressure: 1013.8 hPa 1012.4 hPa -
Precipitation: 3.8 mm    
Historical Graphs
 
 
Tabular Data for November 10, 2016
Time Temperature Dew Point Pressure Wind Wind Speed Wind Gust Humidity Rainfall Rate (Hourly)
00:02 7.9 °C 6.2 °C 1012.8 hPa South 11.3 km/h 27.4 km/h 89 % 0.0 mm
00:12 7.8 °C 6.1 °C 1012.8 hPa West 9.7 km/h 27.4 km/h 89 % 0.0 mm
00:17 7.9 °C 6.2 °C 1012.8 hPa WSW 16.1 km/h 24.1 km/h 89 % 0.0 mm
00:22 7.9 °C 6.2 °C 1013.1 hPa WNW 12.9 km/h 24.1 km/h 89 % 0.0 mm
00:32 7.9 °C 6.2 °C 1013.1 hPa West 9.7 km/h 27.4 km/h 89 % 0.0 mm
00:37 7.9 °C 6.2 °C 1013.1 hPa West 17.7 km/h 24.1 km/h 89 % 0.0 mm
00:42 7.8 °C 6.3 °C 1013.1 hPa WSW 11.3 km/h 24.1 km/h 90 % 0.0 mm
00:47 7.8 °C 6.4 °C 1013.1 hPa WSW 6.4 km/h 24.1 km/h 91 % 0.0 mm
00:52 7.7 °C 6.3 °C 1012.8 hPa WSW 17.7 km/h 24.1 km/h 91 % 0.3 mm
00:57 7.7 °C 6.5 °C 1012.8 hPa West 17.7 km/h 24.1 km/h 92 % 0.3 mm
01:02 7.6 °C 6.4 °C 1012.8 hPa WSW 8.0 km/h 32.2 km/h 92 % 0.5 mm
01:12 7.5 °C 6.4 °C 1012.8 hPa WSW 20.9 km/h 30.6 km/h 93 % 0.5 mm
01:17 7.5 °C 6.4 °C 1012.8 hPa WSW 6.4 km/h 25.7 km/h 93 % 0.5 mm
01:22 7.5 °C 6.4 °C 1012.8 hPa WSW 9.7 km/h 25.7 km/h 93 % 0.5 mm
01:27 7.5 °C 6.4 °C 1012.8 hPa West 6.4 km/h 29.0 km/h 93 % 0.5 mm
01:32 7.4 °C 6.3 °C 1012.8 hPa West 9.7 km/h 29.0 km/h 93 % 0.5 mm
01:37 7.4 °C 6.3 °C 1012.8 hPa West 8.0 km/h 29.0 km/h 93 % 0.5 mm
01:42 7.4 °C 6.3 °C 1012.8 hPa West 16.1 km/h 25.7 km/h 93 % 0.5 mm
01:47 7.4 °C 6.3 °C 1012.8 hPa WSW 12.9 km/h 25.7 km/h 93 % 0.5 mm
01:52 7.4 °C 6.3 °C 1012.8 hPa WNW 4.8 km/h 25.7 km/h 93 % 0.3 mm
01:57 7.5 °C 6.4 °C 1012.8 hPa SSW 8.0 km/h 25.7 km/h 93 % 0.0 mm
02:02 7.5 °C 6.4 °C 1013.1 hPa West 11.3 km/h 25.7 km/h 93 % 0.0 mm
02:07 7.6 °C 6.5 °C 1013.1 hPa West 8.0 km/h 24.1 km/h 93 % 0.0 mm
02:12 7.6 °C 6.5 °C 1013.1 hPa West 3.2 km/h 24.1 km/h 93 % 0.0 mm
02:17 7.6 °C 6.5 °C 1013.1 hPa West 14.5 km/h 29.0 km/h 93 % 0.0 mm
02:22 7.7 °C 6.6 °C 1013.1 hPa West 4.8 km/h 29.0 km/h 93 % 0.0 mm
02:27 7.7 °C 6.5 °C 1012.8 hPa WSW 19.3 km/h 29.0 km/h 92 % 0.0 mm
02:32 7.8 °C 6.6 °C 1012.8 hPa West 19.3 km/h 24.1 km/h 92 % 0.0 mm
02:37 7.8 °C 6.6 °C 1012.8 hPa WNW 8.0 km/h 24.1 km/h 92 % 0.0 mm
02:42 7.8 °C 6.4 °C 1012.8 hPa WSW 6.4 km/h 22.5 km/h 91 % 0.0 mm
02:47 7.9 °C 6.5 °C 1012.8 hPa SW 12.9 km/h 22.5 km/h 91 % 0.0 mm
02:52 7.9 °C 6.5 °C 1012.8 hPa West 14.5 km/h 22.5 km/h 91 % 0.0 mm
02:57 7.9 °C 6.5 °C 1012.8 hPa WSW 16.1 km/h 22.5 km/h 91 % 0.0 mm
03:02 7.9 °C 6.7 °C 1013.1 hPa WSW 11.3 km/h 20.9 km/h 92 % 0.0 mm
03:12 7.8 °C 6.6 °C 1012.8 hPa WSW 14.5 km/h 20.9 km/h 92 % 0.0 mm
03:17 7.8 °C 6.6 °C 1012.8 hPa WSW 4.8 km/h 20.9 km/h 92 % 0.0 mm
03:22 7.8 °C 6.6 °C 1012.8 hPa West 16.1 km/h 20.9 km/h 92 % 0.0 mm
03:32 7.8 °C 6.6 °C 1012.8 hPa WNW 8.0 km/h 19.3 km/h 92 % 0.0 mm
03:42 7.7 °C 6.5 °C 1012.8 hPa West 11.3 km/h 17.7 km/h 92 % 0.0 mm
03:47 7.6 °C 6.4 °C 1012.8 hPa SW 4.8 km/h 17.7 km/h 92 % 0.0 mm
03:52 7.6 °C 6.5 °C 1012.8 hPa WSW 4.8 km/h 17.7 km/h 93 % 0.0 mm
03:57 7.6 °C 6.5 °C 1012.8 hPa West 11.3 km/h 17.7 km/h 93 % 0.0 mm
04:02 7.5 °C 6.4 °C 1012.8 hPa WSW 14.5 km/h 22.5 km/h 93 % 0.0 mm
04:07 7.5 °C 6.6 °C 1012.8 hPa SW 3.2 km/h 22.5 km/h 94 % 0.5 mm
04:17 7.4 °C 6.5 °C 1012.8 hPa SW 11.3 km/h 20.9 km/h 94 % 0.5 mm
04:22 7.4 °C 6.5 °C 1012.8 hPa SW 3.2 km/h 17.7 km/h 94 % 0.5 mm
04:27 7.4 °C 6.5 °C 1012.8 hPa SSW 3.2 km/h 17.7 km/h 94 % 0.5 mm
04:32 7.4 °C 6.7 °C 1012.8 hPa WSW 8.0 km/h 17.7 km/h 95 % 0.5 mm
04:37 7.4 °C 6.7 °C 1012.8 hPa SW 12.9 km/h 16.1 km/h 95 % 0.5 mm
04:42 7.4 °C 6.7 °C 1012.8 hPa West 8.0 km/h 16.1 km/h 95 % 0.5 mm
04:47 7.4 °C 6.7 °C 1012.8 hPa SW 3.2 km/h 16.1 km/h 95 % 0.5 mm
04:52 7.4 °C 6.7 °C 1012.8 hPa WNW 4.8 km/h 16.1 km/h 95 % 0.5 mm
04:57 7.5 °C 6.6 °C 1012.8 hPa SW 6.4 km/h 14.5 km/h 94 % 0.5 mm
05:02 7.5 °C 6.6 °C 1012.8 hPa WSW 4.8 km/h 14.5 km/h 94 % 0.5 mm
05:12 7.5 °C 6.8 °C 1012.8 hPa WSW 6.4 km/h 12.9 km/h 95 % 0.0 mm
05:17 7.6 °C 6.7 °C 1012.8 hPa SSW 9.7 km/h 12.9 km/h 94 % 0.0 mm
05:22 7.6 °C 6.7 °C 1012.8 hPa West 12.9 km/h 12.9 km/h 94 % 0.0 mm
05:27 7.7 °C 6.8 °C 1012.8 hPa WSW 12.9 km/h 14.5 km/h 94 % 0.0 mm
05:37 7.7 °C 6.8 °C 1012.8 hPa West 12.9 km/h 14.5 km/h 94 % 0.0 mm
05:42 7.8 °C 6.9 °C 1012.8 hPa West 8.0 km/h 14.5 km/h 94 % 0.0 mm
05:47 7.8 °C 6.9 °C 1012.8 hPa West 9.7 km/h 14.5 km/h 94 % 0.0 mm
05:52 7.8 °C 6.9 °C 1012.8 hPa SW 4.8 km/h 14.5 km/h 94 % 0.0 mm
05:57 7.9 °C 6.8 °C 1012.8 hPa West 6.4 km/h 14.5 km/h 93 % 0.0 mm
06:02 7.9 °C 7.0 °C 1012.8 hPa SW 9.7 km/h 14.5 km/h 94 % 0.0 mm
06:07 7.9 °C 7.0 °C 1012.8 hPa West 6.4 km/h 14.5 km/h 94 % 0.0 mm
06:12 7.9 °C 6.8 °C 1012.8 hPa SW 8.0 km/h 14.5 km/h 93 % 0.0 mm
06:17 7.9 °C 6.8 °C 1012.8 hPa West 8.0 km/h 14.5 km/h 93 % 0.0 mm
06:22 7.9 °C 7.0 °C 1012.8 hPa SW 4.8 km/h 14.5 km/h 94 % 0.0 mm
06:27 7.9 °C 7.0 °C 1012.8 hPa WSW 11.3 km/h 14.5 km/h 94 % 0.0 mm
06:32 7.9 °C 7.0 °C 1012.4 hPa WSW 4.8 km/h 17.7 km/h 94 % 0.3 mm
06:37 7.9 °C 7.0 °C 1012.8 hPa SW 11.3 km/h 17.7 km/h 94 % 0.3 mm
06:42 7.9 °C 7.0 °C 1012.8 hPa SW 11.3 km/h 17.7 km/h 94 % 0.3 mm
06:47 7.9 °C 7.0 °C 1012.8 hPa West 3.2 km/h 17.7 km/h 94 % 0.3 mm
06:52 7.9 °C 7.0 °C 1012.8 hPa West 3.2 km/h 16.1 km/h 94 % 0.3 mm
06:57 7.9 °C 7.0 °C 1012.8 hPa SW 6.4 km/h 16.1 km/h 94 % 0.3 mm
07:02 7.9 °C 7.0 °C 1012.8 hPa West 11.3 km/h 19.3 km/h 94 % 0.3 mm
07:07 7.9 °C 7.0 °C 1012.8 hPa SW 6.4 km/h 20.9 km/h 94 % 0.3 mm
07:12 7.9 °C 7.0 °C 1012.8 hPa SW 8.0 km/h 20.9 km/h 94 % 0.3 mm
07:17 7.9 °C 7.0 °C 1012.8 hPa West 4.8 km/h 20.9 km/h 94 % 0.3 mm
07:32 7.9 °C 7.0 °C 1012.8 hPa West 8.0 km/h 17.7 km/h 94 % 0.0 mm
07:37 8.0 °C 7.1 °C 1012.8 hPa WNW 3.2 km/h 20.9 km/h 94 % 0.0 mm
07:42 8.0 °C 7.1 °C 1013.1 hPa West 8.0 km/h 20.9 km/h 94 % 0.0 mm
07:47 8.1 °C 7.2 °C 1013.1 hPa WSW 9.7 km/h 20.9 km/h 94 % 0.0 mm
07:52 8.1 °C 7.2 °C 1013.1 hPa West 9.7 km/h 20.9 km/h 94 % 0.0 mm
07:57 8.1 °C 7.2 °C 1013.1 hPa WSW 8.0 km/h 16.1 km/h 94 % 0.0 mm
08:02 8.1 °C 7.2 °C 1013.1 hPa WSW 3.2 km/h 16.1 km/h 94 % 0.0 mm
08:07 8.1 °C 7.2 °C 1013.1 hPa West 9.7 km/h 16.1 km/h 94 % 0.0 mm
08:12 8.1 °C 7.2 °C 1013.1 hPa SW 11.3 km/h 16.1 km/h 94 % 0.0 mm
08:17 8.1 °C 7.2 °C 1013.1 hPa West 8.0 km/h 19.3 km/h 94 % 0.0 mm
08:22 8.1 °C 7.2 °C 1013.1 hPa SW 8.0 km/h 19.3 km/h 94 % 0.0 mm
08:32 8.1 °C 7.2 °C 1013.1 hPa WSW 9.7 km/h 20.9 km/h 94 % 0.0 mm
08:37 8.2 °C 7.3 °C 1013.1 hPa SSW 6.4 km/h 17.7 km/h 94 % 0.0 mm
08:42 8.2 °C 7.3 °C 1013.1 hPa West 1.6 km/h 17.7 km/h 94 % 0.0 mm
08:47 8.2 °C 7.3 °C 1013.1 hPa WSW 4.8 km/h 17.7 km/h 94 % 0.0 mm
08:52 8.2 °C 7.3 °C 1013.1 hPa West 6.4 km/h 16.1 km/h 94 % 0.0 mm
08:57 8.2 °C 7.3 °C 1013.4 hPa West 9.7 km/h 16.1 km/h 94 % 0.0 mm
09:02 8.3 °C 7.4 °C 1013.4 hPa West 9.7 km/h 16.1 km/h 94 % 0.0 mm
09:07 8.3 °C 7.4 °C 1013.4 hPa West 6.4 km/h 17.7 km/h 94 % 0.0 mm
09:12 8.4 °C 7.5 °C 1013.4 hPa WSW 9.7 km/h 17.7 km/h 94 % 0.0 mm
09:17 8.4 °C 7.5 °C 1013.4 hPa West 9.7 km/h 16.1 km/h 94 % 0.0 mm
09:22 8.4 °C 7.3 °C 1013.4 hPa WSW 12.9 km/h 16.1 km/h 93 % 0.0 mm
09:27 8.5 °C 7.4 °C 1013.4 hPa West 12.9 km/h 20.9 km/h 93 % 0.0 mm
09:32 8.6 °C 7.5 °C 1013.4 hPa WSW 3.2 km/h 20.9 km/h 93 % 0.0 mm
09:37 8.6 °C 7.5 °C 1013.4 hPa WSW 8.0 km/h 20.9 km/h 93 % 0.0 mm
09:42 8.6 °C 7.5 °C 1013.4 hPa SW 6.4 km/h 20.9 km/h 93 % 0.0 mm
09:47 8.6 °C 7.5 °C 1013.4 hPa West 3.2 km/h 17.7 km/h 93 % 0.0 mm
09:52 8.6 °C 7.7 °C 1013.4 hPa SW 9.7 km/h 17.7 km/h 94 % 0.0 mm
10:02 8.6 °C 7.7 °C 1013.4 hPa WSW 9.7 km/h 17.7 km/h 94 % 0.0 mm
10:07 8.7 °C 7.8 °C 1013.4 hPa WNW 1.6 km/h 20.9 km/h 94 % 0.0 mm
10:12 8.7 °C 7.8 °C 1013.4 hPa West 6.4 km/h 20.9 km/h 94 % 0.0 mm
10:17 8.7 °C 7.8 °C 1013.4 hPa SW 8.0 km/h 20.9 km/h 94 % 0.0 mm
10:22 8.8 °C 7.7 °C 1013.4 hPa NW 4.8 km/h 20.9 km/h 93 % 0.0 mm
10:32 8.9 °C 7.8 °C 1013.4 hPa West 11.3 km/h 16.1 km/h 93 % 0.0 mm
10:42 8.9 °C 7.8 °C 1013.8 hPa WSW 9.7 km/h 17.7 km/h 93 % 0.0 mm
10:47 8.9 °C 7.8 °C 1013.8 hPa West 1.6 km/h 19.3 km/h 93 % 0.0 mm
10:52 9.0 °C 7.9 °C 1013.4 hPa West 8.0 km/h 19.3 km/h 93 % 0.0 mm
10:57 9.0 °C 7.9 °C 1013.4 hPa WSW 8.0 km/h 19.3 km/h 93 % 0.0 mm
11:02 9.1 °C 7.9 °C 1013.8 hPa West 12.9 km/h 19.3 km/h 92 % 0.0 mm
11:07 9.2 °C 8.0 °C 1013.8 hPa WSW 17.7 km/h 22.5 km/h 92 % 0.0 mm
11:17 9.6 °C 8.0 °C 1013.4 hPa WSW 14.5 km/h 22.5 km/h 90 % 0.0 mm
11:22 9.7 °C 8.1 °C 1013.4 hPa WSW 9.7 km/h 20.9 km/h 90 % 0.0 mm
11:32 9.6 °C 7.9 °C 1013.4 hPa SSW 11.3 km/h 22.5 km/h 89 % 0.0 mm
11:42 9.6 °C 8.2 °C 1013.4 hPa SW 9.7 km/h 22.5 km/h 91 % 0.0 mm
11:47 9.7 °C 8.1 °C 1013.4 hPa WNW 12.9 km/h 22.5 km/h 90 % 0.0 mm
11:52 9.7 °C 8.1 °C 1013.4 hPa WSW 14.5 km/h 20.9 km/h 90 % 0.0 mm
11:57 9.7 °C 8.1 °C 1013.4 hPa WSW 9.7 km/h 19.3 km/h 90 % 0.0 mm
12:02 9.7 °C 8.1 °C 1013.4 hPa West 16.1 km/h 19.3 km/h 90 % 0.0 mm
12:12 9.8 °C 8.2 °C 1013.4 hPa WSW 4.8 km/h 19.3 km/h 90 % 0.0 mm
12:17 9.9 °C 8.3 °C 1013.4 hPa West 3.2 km/h 19.3 km/h 90 % 0.0 mm
12:22 10.0 °C 8.3 °C 1013.1 hPa West 11.3 km/h 19.3 km/h 89 % 0.0 mm
12:27 10.1 °C 8.2 °C 1013.1 hPa West 8.0 km/h 16.1 km/h 88 % 0.0 mm
12:32 10.1 °C 8.0 °C 1013.1 hPa SW 8.0 km/h 16.1 km/h 87 % 0.0 mm
12:37 9.9 °C 8.0 °C 1013.1 hPa West 6.4 km/h 17.7 km/h 88 % 0.0 mm
12:47 9.8 °C 7.9 °C 1013.1 hPa West 6.4 km/h 19.3 km/h 88 % 0.0 mm
12:52 9.9 °C 8.2 °C 1013.1 hPa WSW 9.7 km/h 19.3 km/h 89 % 0.0 mm
12:57 10.1 °C 8.2 °C 1013.1 hPa WSW 8.0 km/h 19.3 km/h 88 % 0.0 mm
13:02 10.2 °C 8.3 °C 1013.1 hPa West 9.7 km/h 19.3 km/h 88 % 0.0 mm
13:07 10.2 °C 8.1 °C 1013.1 hPa WSW 6.4 km/h 19.3 km/h 87 % 0.0 mm
13:12 10.3 °C 8.2 °C 1013.1 hPa SW 6.4 km/h 19.3 km/h 87 % 0.0 mm
13:17 10.3 °C 8.2 °C 1012.8 hPa SW 6.4 km/h 16.1 km/h 87 % 0.0 mm
13:22 10.4 °C 8.3 °C 1012.8 hPa West 12.9 km/h 17.7 km/h 87 % 0.0 mm
13:27 10.3 °C 8.2 °C 1012.8 hPa WSW 12.9 km/h 19.3 km/h 87 % 0.0 mm
13:32 10.1 °C 8.4 °C 1012.8 hPa WSW 14.5 km/h 19.3 km/h 89 % 0.0 mm
13:37 9.8 °C 8.2 °C 1012.8 hPa WSW 11.3 km/h 24.1 km/h 90 % 0.3 mm
13:42 9.7 °C 8.5 °C 1012.8 hPa WSW 9.7 km/h 24.1 km/h 92 % 0.3 mm
13:47 9.7 °C 8.3 °C 1012.8 hPa WSW 12.9 km/h 22.5 km/h 91 % 0.3 mm
13:52 9.8 °C 8.4 °C 1012.8 hPa SW 9.7 km/h 17.7 km/h 91 % 0.3 mm
13:57 9.9 °C 8.5 °C 1012.8 hPa WSW 12.9 km/h 17.7 km/h 91 % 0.3 mm
14:02 9.9 °C 8.3 °C 1012.8 hPa WNW 8.0 km/h 19.3 km/h 90 % 0.5 mm
14:12 9.9 °C 8.5 °C 1012.8 hPa WSW 4.8 km/h 24.1 km/h 91 % 0.5 mm
14:17 9.8 °C 8.4 °C 1012.8 hPa West 6.4 km/h 19.3 km/h 91 % 0.5 mm
14:22 9.8 °C 8.4 °C 1012.8 hPa West 9.7 km/h 19.3 km/h 91 % 0.5 mm
14:27 9.8 °C 8.2 °C 1012.8 hPa WSW 17.7 km/h 19.3 km/h 90 % 0.5 mm
14:32 9.8 °C 8.4 °C 1012.8 hPa West 9.7 km/h 24.1 km/h 91 % 0.5 mm
14:42 9.9 °C 8.5 °C 1012.8 hPa WSW 12.9 km/h 24.1 km/h 91 % 0.5 mm
14:47 9.9 °C 8.5 °C 1012.8 hPa SW 1.6 km/h 19.3 km/h 91 % 0.5 mm
14:52 9.9 °C 8.5 °C 1012.8 hPa WSW 4.8 km/h 19.3 km/h 91 % 0.5 mm
14:57 9.9 °C 8.5 °C 1012.8 hPa West 4.8 km/h 17.7 km/h 91 % 0.5 mm
15:02 9.9 °C 8.5 °C 1012.8 hPa West 6.4 km/h 17.7 km/h 91 % 0.3 mm
15:07 9.9 °C 8.5 °C 1012.8 hPa WSW 4.8 km/h 17.7 km/h 91 % 0.3 mm
15:12 9.9 °C 8.3 °C 1012.8 hPa West 11.3 km/h 19.3 km/h 90 % 0.3 mm
15:17 9.9 °C 8.5 °C 1012.8 hPa WSW 4.8 km/h 19.3 km/h 91 % 0.3 mm
15:22 9.8 °C 8.6 °C 1012.8 hPa West 4.8 km/h 19.3 km/h 92 % 0.5 mm
15:32 9.7 °C 8.5 °C 1012.8 hPa WSW 6.4 km/h 17.7 km/h 92 % 0.5 mm
15:42 9.7 °C 8.5 °C 1012.8 hPa SW 6.4 km/h 14.5 km/h 92 % 0.8 mm
15:52 9.7 °C 8.5 °C 1012.8 hPa WNW 4.8 km/h 16.1 km/h 92 % 0.8 mm
15:57 9.7 °C 8.5 °C 1012.8 hPa West 8.0 km/h 17.7 km/h 92 % 0.8 mm
16:02 9.7 °C 8.5 °C 1012.8 hPa West 6.4 km/h 19.3 km/h 92 % 0.8 mm
16:12 9.8 °C 8.6 °C 1012.8 hPa WSW 9.7 km/h 19.3 km/h 92 % 0.8 mm
16:17 9.8 °C 8.7 °C 1012.8 hPa SW 9.7 km/h 19.3 km/h 93 % 0.5 mm
16:22 9.8 °C 8.7 °C 1012.8 hPa SW 6.4 km/h 19.3 km/h 93 % 0.5 mm
16:32 9.7 °C 8.6 °C 1012.8 hPa WSW 6.4 km/h 17.7 km/h 93 % 0.3 mm
16:37 9.7 °C 8.6 °C 1012.8 hPa WSW 1.6 km/h 16.1 km/h 93 % 0.0 mm
16:42 9.7 °C 8.6 °C 1012.8 hPa WSW 6.4 km/h 14.5 km/h 93 % 0.3 mm
16:52 9.6 °C 8.7 °C 1012.8 hPa WSW 4.8 km/h 12.9 km/h 94 % 0.3 mm
16:57 9.6 °C 8.7 °C 1012.8 hPa West 6.4 km/h 12.9 km/h 94 % 0.3 mm
17:02 9.6 °C 8.7 °C 1012.8 hPa SW 6.4 km/h 12.9 km/h 94 % 0.3 mm
17:07 9.6 °C 8.7 °C 1012.8 hPa West 3.2 km/h 11.3 km/h 94 % 0.3 mm
17:12 9.6 °C 8.5 °C 1012.8 hPa WNW 12.9 km/h 16.1 km/h 93 % 0.3 mm
17:17 9.7 °C 8.5 °C 1012.8 hPa West 6.4 km/h 20.9 km/h 92 % 0.3 mm
17:22 9.7 °C 8.3 °C 1012.8 hPa WNW 4.8 km/h 20.9 km/h 91 % 0.3 mm
17:32 9.8 °C 8.2 °C 1012.8 hPa WNW 11.3 km/h 20.9 km/h 90 % 0.3 mm
17:42 9.9 °C 8.3 °C 1013.1 hPa West 12.9 km/h 20.9 km/h 90 % 0.0 mm
17:47 9.8 °C 8.4 °C 1012.8 hPa West 11.3 km/h 20.9 km/h 91 % 0.0 mm
17:52 9.8 °C 8.4 °C 1012.8 hPa West 6.4 km/h 20.9 km/h 91 % 0.0 mm
17:57 9.8 °C 8.4 °C 1012.8 hPa West 4.8 km/h 20.9 km/h 91 % 0.0 mm
18:02 9.7 °C 8.5 °C 1012.8 hPa West 14.5 km/h 20.9 km/h 92 % 0.0 mm
18:12 9.7 °C 8.5 °C 1013.1 hPa West 8.0 km/h 20.9 km/h 92 % 0.3 mm
18:17 9.7 °C 8.5 °C 1013.1 hPa West 14.5 km/h 20.9 km/h 92 % 0.3 mm
18:24 9.7 °C 8.5 °C 1013.1 hPa West 4.8 km/h 19.3 km/h 92 % 0.3 mm
18:32 9.7 °C 8.5 °C 1013.1 hPa SW 11.3 km/h 19.3 km/h 92 % 0.3 mm
18:42 9.6 °C 8.4 °C 1013.1 hPa West 8.0 km/h 17.7 km/h 92 % 0.3 mm
18:47 9.6 °C 8.4 °C 1013.1 hPa WSW 4.8 km/h 19.3 km/h 92 % 0.3 mm
18:52 9.6 °C 8.5 °C 1013.1 hPa West 8.0 km/h 19.3 km/h 93 % 0.3 mm
18:57 9.6 °C 8.4 °C 1013.1 hPa WSW 12.9 km/h 19.3 km/h 92 % 0.3 mm
19:02 9.6 °C 8.4 °C 1013.1 hPa WSW 6.4 km/h 17.7 km/h 92 % 0.3 mm
19:07 9.6 °C 8.5 °C 1013.4 hPa WSW 4.8 km/h 17.7 km/h 93 % 0.0 mm
19:12 9.5 °C 8.4 °C 1013.4 hPa WSW 3.2 km/h 16.1 km/h 93 % 0.0 mm
19:22 9.4 °C 8.5 °C 1013.4 hPa West 3.2 km/h 12.9 km/h 94 % 0.0 mm
19:27 9.4 °C 8.5 °C 1013.4 hPa WSW 3.2 km/h 14.5 km/h 94 % 0.0 mm
19:32 9.3 °C 8.4 °C 1013.4 hPa West 4.8 km/h 14.5 km/h 94 % 0.0 mm
19:42 9.3 °C 8.4 °C 1013.4 hPa SW 4.8 km/h 12.9 km/h 94 % 0.0 mm
19:47 9.3 °C 8.4 °C 1013.4 hPa SW 3.2 km/h 12.9 km/h 94 % 0.0 mm
19:52 9.3 °C 8.4 °C 1013.4 hPa SW 6.4 km/h 12.9 km/h 94 % 0.0 mm
20:02 9.2 °C 8.3 °C 1013.1 hPa WSW 3.2 km/h 9.7 km/h 94 % 0.0 mm
20:12 9.2 °C 8.3 °C 1013.1 hPa SW 1.6 km/h 11.3 km/h 94 % 0.0 mm
20:17 9.2 °C 8.3 °C 1013.1 hPa SW 3.2 km/h 11.3 km/h 94 % 0.0 mm
20:22 9.2 °C 8.3 °C 1013.1 hPa Calm   14.5 km/h 94 % 0.0 mm
20:32 9.2 °C 8.3 °C 1013.1 hPa SW 9.7 km/h 11.3 km/h 94 % 0.0 mm
20:37 9.2 °C 8.3 °C 1013.1 hPa WSW 6.4 km/h 12.9 km/h 94 % 0.0 mm
20:42 9.2 °C 8.3 °C 1013.1 hPa SW 4.8 km/h 14.5 km/h 94 % 0.0 mm
20:47 9.2 °C 8.3 °C 1012.8 hPa SW 8.0 km/h 17.7 km/h 94 % 0.0 mm
20:52 9.3 °C 8.4 °C 1013.1 hPa WSW 8.0 km/h 22.5 km/h 94 % 0.0 mm
20:57 9.2 °C 8.3 °C 1013.1 hPa West 3.2 km/h 22.5 km/h 94 % 0.0 mm
21:02 9.2 °C 8.3 °C 1013.1 hPa WSW 6.4 km/h 19.3 km/h 94 % 0.0 mm
21:12 9.3 °C 8.4 °C 1013.1 hPa West 4.8 km/h 17.7 km/h 94 % 0.0 mm
21:17 9.3 °C 8.4 °C 1013.1 hPa WSW 6.4 km/h 19.3 km/h 94 % 0.0 mm
21:22 9.4 °C 8.5 °C 1013.1 hPa WSW 8.0 km/h 19.3 km/h 94 % 0.0 mm
21:32 9.4 °C 8.5 °C 1013.1 hPa SW 9.7 km/h 22.5 km/h 94 % 0.0 mm
21:37 9.4 °C 8.5 °C 1013.1 hPa WSW 17.7 km/h 22.5 km/h 94 % 0.0 mm
21:42 9.5 °C 8.6 °C 1013.1 hPa West 8.0 km/h 17.7 km/h 94 % 0.0 mm
21:52 9.7 °C 8.6 °C 1013.1 hPa WNW 19.3 km/h 25.7 km/h 93 % 0.3 mm
21:57 9.7 °C 8.5 °C 1013.1 hPa West 12.9 km/h 25.7 km/h 92 % 0.3 mm
22:02 9.8 °C 8.6 °C 1013.1 hPa WSW 9.7 km/h 25.7 km/h 92 % 0.3 mm
22:12 10.0 °C 8.6 °C 1013.1 hPa West 16.1 km/h 25.7 km/h 91 % 0.3 mm
22:17 10.2 °C 8.5 °C 1013.1 hPa WSW 24.1 km/h 29.0 km/h 89 % 0.3 mm
22:22 10.2 °C 8.5 °C 1013.1 hPa WSW 8.0 km/h 30.6 km/h 89 % 0.3 mm
22:32 10.2 °C 8.5 °C 1013.1 hPa West 16.1 km/h 30.6 km/h 89 % 0.3 mm
22:37 10.1 °C 8.5 °C 1013.1 hPa WSW 14.5 km/h 22.5 km/h 90 % 0.3 mm
22:42 10.0 °C 8.6 °C 1013.1 hPa West 8.0 km/h 22.5 km/h 91 % 0.3 mm
22:47 9.9 °C 8.5 °C 1013.1 hPa WSW 9.7 km/h 22.5 km/h 91 % 0.5 mm
22:52 9.8 °C 8.4 °C 1013.1 hPa West 14.5 km/h 22.5 km/h 91 % 0.5 mm
22:57 9.9 °C 8.5 °C 1013.1 hPa West 14.5 km/h 25.7 km/h 91 % 0.5 mm
23:02 9.8 °C 8.6 °C 1013.1 hPa West 9.7 km/h 27.4 km/h 92 % 0.5 mm
23:12 9.8 °C 8.4 °C 1013.1 hPa West 6.4 km/h 33.8 km/h 91 % 0.5 mm
23:17 9.8 °C 8.4 °C 1013.1 hPa West 14.5 km/h 33.8 km/h 91 % 0.5 mm
23:22 9.7 °C 8.1 °C 1013.1 hPa West 17.7 km/h 30.6 km/h 90 % 0.5 mm
23:27 9.7 °C 8.1 °C 1013.1 hPa West 12.9 km/h 30.6 km/h 90 % 0.5 mm
23:32 9.7 °C 8.1 °C 1013.4 hPa WNW 8.0 km/h 27.4 km/h 90 % 0.5 mm
23:42 9.6 °C 8.0 °C 1013.4 hPa WNW 6.4 km/h 24.1 km/h 90 % 0.3 mm
23:47 9.5 °C 8.1 °C 1013.4 hPa West 4.8 km/h 22.5 km/h 91 % 0.3 mm
23:52 9.4 °C 8.0 °C 1013.4 hPa WNW 12.9 km/h 22.5 km/h 91 % 0.3 mm
23:57 9.5 °C 7.9 °C 1013.4 hPa WSW 12.9 km/h 25.7 km/h 90 % 0.5 mm
Meteo18
Compliments of Weather Underground - 4 mb

Script developed by  Jim McMurry - jmcmurry@mwt.net Adapted for the template by  Wim van der Kuil - Leuven-Template.eu

You find our weather info also at:

European Weather Network

Weather Underground

Equipment we use:

Weather-station
Davis Vue

Weather-program
Meteohub

Weather-server
Raspberry PI 2 B+

Provider
1 and 1

Davis Vue

Meteohub

Raspberry PI 2 B+

1 and 1